Weather History for Urgench, Turkmenistan

Change the Weather History Date:

Saturday, February 16, 2013

  Actual Average Record
Temperature  
Mean Temperature 38 °F -  
Max Temperature 53 °F - - ()
Min Temperature 24 °F - - ()
Degree Days  
Heating Degree Days 26    
Moisture  
Dew Point 14 °F    
Average Humidity 41    
Maximum Humidity 59    
Minimum Humidity 21    
Precipitation  
Precipitation 0.00 in - - ()
Sea Level Pressure  
Sea Level Pressure 30.07 in    
Wind  
Wind Speed 12 mph ()    
Max Wind Speed 20 mph    
Max Gust Speed -    
Visibility 5.2 miles    
Events      
T = Trace of Precipitation, MM = Missing Value Source: Averaged Metar Reports

Daily Weather History Graph

Daily Weather History Graph

Search for Another Location

Airport:

Trip Planner

Search our weather history database for the weather conditions in past years. The results will help you decide how hot, cold, wet, or windy it might be!

Date:

Astronomy

Feb. 16, 2013 Rise Set
Actual Time 7:51 AM TMT 6:32 PM TMT
Civil Twilight 7:23 AM TMT 7:00 PM TMT
Nautical Twilight 6:50 AM TMT 7:32 PM TMT
Astronomical Twilight 6:18 AM TMT 8:05 PM TMT
Moon 10:43 AM TMT (2/16) 12:13 AM TMT (2/16)
Length of Visible Light 11h 37m
Length of Day
10h 40m
Waxing Crescent, 35% of the Moon is Illuminated
Feb 16
Waxing Crescent
Feb 18
First Quarter
Feb 26
Full
Mar 5
Last Quarter
Mar 12
New

Hourly Weather History & Observations

Time (TMT) Temp. Windchill Dew Point Humidity Pressure Visibility Wind Dir Wind Speed Gust Speed Precip Events Conditions
12:00 AM 30.2 °F 20.9 °F 12.2 °F 47% 30.24 in - ENE 11.2 mph - N/A   Clear
1:00 AM 28.4 °F 18.7 °F 12.2 °F 51% 30.24 in - East 11.2 mph - N/A   Clear
1:30 AM 28.4 °F 19.9 °F 12.2 °F 51% 30.21 in - East 8.9 mph - N/A   Clear
2:00 AM 28.4 °F 19.9 °F 12.2 °F 51% 30.21 in - ENE 8.9 mph - N/A   Clear
2:30 AM 26.6 °F 16.4 °F 14.0 °F 59% 30.21 in - ENE 11.2 mph - N/A   Clear
3:00 AM 26.6 °F 17.7 °F 12.2 °F 55% 30.21 in - ENE 8.9 mph - N/A   Clear
3:30 AM 26.6 °F 17.7 °F 12.2 °F 55% 30.21 in - ENE 8.9 mph - N/A   Clear
4:00 AM 26.6 °F 17.7 °F 12.2 °F 55% - - ENE 8.9 mph - N/A   Clear
4:30 AM 26.6 °F 17.7 °F 12.2 °F 55% 30.18 in - East 8.9 mph - N/A   Clear
5:00 AM 26.6 °F 16.4 °F 12.2 °F 55% 30.15 in - ENE 11.2 mph - N/A   Clear
5:30 AM 26.6 °F 16.4 °F 12.2 °F 55% 30.15 in - ENE 11.2 mph - N/A   Clear
6:00 AM 24.8 °F 13.1 °F 12.2 °F 59% 30.15 in - ENE 13.4 mph - N/A   Clear
6:30 AM 24.8 °F 14.2 °F 12.2 °F 59% 30.15 in - East 11.2 mph - N/A   Clear
7:00 AM 24.8 °F 14.2 °F 12.2 °F 59% 30.15 in - East 11.2 mph - N/A   Clear
7:30 AM 24.8 °F 14.2 °F 12.2 °F 59% 30.15 in - East 11.2 mph - N/A   Clear
8:00 AM 24.8 °F 14.2 °F 12.2 °F 59% 30.15 in - East 11.2 mph - N/A   Clear
8:30 AM 26.6 °F 16.4 °F 12.2 °F 55% 30.15 in - East 11.2 mph - N/A   Clear
9:00 AM 26.6 °F 15.3 °F 12.2 °F 55% 30.15 in - East 13.4 mph - N/A   Clear
9:30 AM 30.2 °F 19.1 °F 14.0 °F 51% 30.12 in - East 15.7 mph - N/A   Clear
10:00 AM 32.0 °F 21.4 °F 14.0 °F 48% 30.12 in - East 15.7 mph - N/A   Clear
10:30 AM 35.6 °F 26.0 °F 15.8 °F 44% 30.12 in - East 15.7 mph - N/A   Clear
11:00 AM 37.4 °F 27.6 °F 15.8 °F 41% 30.12 in - East 17.9 mph - N/A   Clear
11:30 AM 39.2 °F 30.0 °F 15.8 °F 39% 30.09 in - East 17.9 mph - N/A   Clear
12:00 PM 41.0 °F 31.8 °F 17.6 °F 39% 30.09 in - East 20.1 mph - N/A   Clear
1:00 PM 46.4 °F 39.3 °F 19.4 °F 34% 30.09 in - East 17.9 mph - N/A   Clear
1:30 PM 48.2 °F - 19.4 °F 32% 30.06 in - East 20.1 mph - N/A   Clear
2:00 PM 50.0 °F - 21.2 °F 32% 30.04 in - ESE 20.1 mph - N/A   Clear
2:30 PM 50.0 °F - 21.2 °F 32% 30.04 in - East 20.1 mph - N/A   Clear
3:00 PM 51.8 °F - 21.2 °F 30% 30.01 in - East 20.1 mph - N/A   Clear
3:30 PM 51.8 °F - 21.2 °F 30% 30.01 in - East 20.1 mph - N/A   Clear
4:00 PM 53.6 °F - 19.4 °F 26% 30.01 in 5.6 mi East 17.9 mph - N/A   Scattered Clouds
4:30 PM 53.6 °F - 17.6 °F 24% 30.01 in 5.6 mi East 17.9 mph - N/A   Scattered Clouds
5:00 PM 53.6 °F - 14.0 °F 21% 29.98 in 5.0 mi East 15.7 mph - N/A   Partly Cloudy
5:30 PM 51.8 °F - 12.2 °F 21% 29.98 in 5.0 mi East 15.7 mph - N/A   Partly Cloudy
6:00 PM 50.0 °F - 12.2 °F 22% 29.98 in 5.0 mi East 13.4 mph - N/A   Partly Cloudy
6:30 PM 48.2 °F - 14.0 °F 25% 29.95 in 5.0 mi East 13.4 mph - N/A   Partly Cloudy
7:00 PM 44.6 °F 38.9 °F 14.0 °F 29% 29.95 in - East 11.2 mph - N/A   Clear
7:30 PM 44.6 °F 38.2 °F 14.0 °F 29% 29.95 in - East 13.4 mph - N/A   Clear
8:00 PM 44.6 °F 37.6 °F 12.2 °F 27% 29.95 in - East 15.7 mph - N/A   Clear
8:30 PM 42.8 °F 35.2 °F 12.2 °F 29% 29.95 in - East 15.7 mph - N/A   Clear
9:00 PM 42.8 °F 35.2 °F 12.2 °F 29% 29.95 in - East 15.7 mph - N/A   Clear
9:30 PM 41.0 °F 32.9 °F 12.2 °F 31% 29.92 in - East 15.7 mph - N/A   Clear
10:00 PM 39.2 °F 31.3 °F 12.2 °F 33% 29.92 in - East 13.4 mph - N/A   Clear
10:30 PM 39.2 °F 33.1 °F 14.0 °F 36% 29.92 in - East 8.9 mph - N/A   Clear
11:00 PM 37.4 °F 30.9 °F 14.0 °F 38% 29.92 in - East 8.9 mph - N/A   Clear
11:30 PM 37.4 °F 29.9 °F 14.0 °F 38% 29.92 in - East 11.2 mph - N/A   Clear